User: anonymous   Login
Location: Albany
(35.0000°S, 118.0000°E)
Time: 12:36:29
(UTC-04:00)
Language:

ERS-1 Rocket - Orbit

View from above orbital plane
View from above orbital plane
View from above satellite
View from above satellite

Ground track
Ground track

The orbit data is extracted from the following two-line orbital elements,

1 21610U 91050F   16240.27258266  .00000033  00000-0  24583-4 0  9998
2 21610  98.6496 288.3384 0004382 100.1789 304.6504 14.40753436317799
Epoch (UTC): 27 August 2016 06:32:31
Eccentricity: 0.0004382
inclination: 98.6496°
perigee height: 753 km
apogee height: 759 km
right ascension of ascending node: 288.3384°
argument of perigee: 100.1789°
revolutions per day: 14.40753436
mean anomaly at epoch: 304.6504°
orbit number at epoch: 31779

The dashed part of the orbit path shows where the satellite is in the earth's shadow,  

DLR